Location: Cambridge (historical)
(38.6883°N, 119.0140°W)
Time: 20:51:23
(UTC+00:00)

Oscar 11 - Visible Passes

Search period start: 23 September 2021 00:00
Search period end: 03 October 2021 00:00
Orbit: 612 x 626 km, 97.6° (Epoch: 23 September)

Date Brightness Start Highest point End Pass type
(mag) Time Alt. Az. Time Alt. Az. Time Alt. Az.
24 Sep 10.3 12:22:31 10° ENE 12:24:45 14° E 12:26:57 10° ESE visible
25 Sep 9.9 12:38:28 10° NE 12:41:46 21° E 12:45:03 10° SE visible
26 Sep 9.1 12:54:52 10° NNE 12:58:46 33° E 13:02:38 10° SSE visible
27 Sep 8.1 13:11:30 10° NNE 13:15:43 52° E 13:19:54 10° S visible
29 Sep 10.7 12:12:36 10° E 12:13:00 10° E 12:13:24 10° E visible
30 Sep 10.2 12:27:21 10° NE 12:30:04 16° E 12:32:46 10° SE visible
01 Oct 9.6 12:43:31 10° NE 12:47:05 25° E 12:50:37 10° SSE visible
02 Oct 8.7 13:00:01 10° NNE 13:04:03 38° E 13:08:04 10° SSE visible
